This is the latest recevied weather packets stored in our database for station/object SP1BMW-13. If no packets are shown the sender has not sent any weather packets the latest 10 day(s).
| Time | Temp. | Humidity | Pressure | Rain* | Wind** | Luminosity | Snow |
|---|---|---|---|---|---|---|---|
| 1778083672 | 10.56° C | 89% | 1006.5 hPa | 0 mm | 0 m/s | 104 W/m² | - |
| 1778083612 | 10.56° C | 89% | 1006.5 hPa | 0 mm | 0.89 m/s, 301° | 105 W/m² | - |
| 1778083552 | 10.56° C | 88% | 1006.5 hPa | 0 mm | 0.45 m/s, 310° | 110 W/m² | - |
| 1778083491 | 10.56° C | 88% | 1006.6 hPa | 0 mm | 0.89 m/s, 356° | 112 W/m² | - |
| 1778083433 | 10.56° C | 88% | 1006.7 hPa | 0 mm | 0.45 m/s, 358° | 111 W/m² | - |
| 1778083371 | 10.56° C | 88% | 1006.6 hPa | 0 mm | 0.89 m/s, 323° | 108 W/m² | - |
| 1778083312 | 10.56° C | 88% | 1006.7 hPa | 0 mm | 1.34 m/s, 310° | 106 W/m² | - |
| 1778083251 | 10.56° C | 88% | 1006.7 hPa | 0 mm | 0.89 m/s, 275° | 106 W/m² | - |
| 1778083192 | 10.56° C | 88% | 1006.6 hPa | 0 mm | 0.89 m/s, 332° | 105 W/m² | - |
| 1778083132 | 10.56° C | 89% | 1006.7 hPa | 0 mm | 0.89 m/s, 30° | 104 W/m² | - |
| 1778083072 | 10.56° C | 89% | 1006.7 hPa | 0 mm | 1.79 m/s, 296° | 105 W/m² | - |
| 1778083012 | 10.56° C | 89% | 1006.7 hPa | 0 mm | 0.45 m/s, 285° | 106 W/m² | - |
| 1778082951 | 10.56° C | 88% | 1006.5 hPa | 0 mm | 0.89 m/s, 358° | 104 W/m² | - |
| 1778082892 | 10.56° C | 88% | 1006.4 hPa | 0 mm | 0.89 m/s, 328° | 100 W/m² | - |
| 1778082832 | 10.56° C | 89% | 1006.5 hPa | 0 mm | 0.45 m/s, 292° | 95 W/m² | - |
| 1778082772 | 10.56° C | 88% | 1006.7 hPa | 0 mm | 0.89 m/s, 324° | 98 W/m² | - |
| 1778082712 | 10.56° C | 89% | 1006.6 hPa | 0 mm | 1.79 m/s, 346° | 103 W/m² | - |
| 1778082652 | 10.56° C | 89% | 1006.5 hPa | 0 mm | 1.34 m/s, 292° | 105 W/m² | - |
| 1778082592 | 10.56° C | 89% | 1006.6 hPa | 0 mm | 0.89 m/s, 266° | 102 W/m² | - |
| 1778082531 | 10.56° C | 88% | 1006.7 hPa | 0 mm | 0.89 m/s, 42° | 99 W/m² | - |
| 1778082472 | 10.56° C | 89% | 1006.5 hPa | 0 mm | 1.34 m/s, 10° | 94 W/m² | - |
| 1778082412 | 10.56° C | 89% | 1006.7 hPa | 0 mm | 0.45 m/s, 323° | 93 W/m² | - |
| 1778082352 | 10.56° C | 89% | 1006.7 hPa | 0 mm | 0.89 m/s, 277° | 84 W/m² | - |
| 1778082292 | 10.56° C | 88% | 1006.6 hPa | 0 mm | 0.89 m/s, 326° | 75 W/m² | - |
| 1778082232 | 10.56° C | 89% | 1006.6 hPa | 0 mm | 0.89 m/s, 339° | 56 W/m² | - |
* Rain latest hour (hover to see other rain measurements)
** Current wind speed in m/s (hover to see current wind gust speed)